Change the Weather History Date:

Monday, April 29, 2013

  Actual Average Record
Temperature  
Mean Temperature 52 °F -  
Max Temperature 57 °F 63 °F 87 °F (1986)
Min Temperature 48 °F 37 °F 22 °F (1946)
Degree Days  
Heating Degree Days 12    
Growing Degree Days 2 (Base 50)    
Moisture  
Dew Point 49 °F    
Average Humidity 89    
Maximum Humidity 94    
Minimum Humidity 82    
Precipitation  
Precipitation 0.10 in - - ()
Sea Level Pressure  
Sea Level Pressure 29.99 in    
Wind  
Wind Speed 9 mph (SE)    
Max Wind Speed 13 mph    
Max Gust Speed 20 mph    
Visibility 9 miles    
Events      
Averages and records for this station are not official NWS values.
T = Trace of Precipitation, MM = Missing Value Source: NWS Daily Summary

Daily Weather History Graph

Daily Weather History Graph

Search for Another Location

Airport or City:

Trip Planner

Search our weather history database for the weather conditions in past years. The results will help you decide how hot, cold, wet, or windy it might be!

Date:

Astronomy

Apr. 29, 2013 Rise Set
Actual Time 6:19 AM EDT 8:15 PM EDT
Civil Twilight 5:49 AM EDT 8:45 PM EDT
Nautical Twilight 5:12 AM EDT 9:21 PM EDT
Astronomical Twilight 4:33 AM EDT 10:01 PM EDT
Moon No Moon Rise 9:36 AM EDT (4/29)
Length of Visible Light 14h 55m
Length of Day
13h 56m
Waning Gibbous, 80% of the Moon is Illuminated
Apr 29
Waning Gibbous
May 2
Last Quarter
May 9
New
May 18
First Quarter
May 25
Full

Hourly Weather History & Observations

Time (EDT) Temp. Dew Point Humidity Pressure Visibility Wind Dir Wind Speed Gust Speed Precip Events Conditions
12:15 AM 48.2 °F 44.6 °F 87% 29.98 in 10.0 mi SE 12.7 mph 19.6 mph N/A   Overcast
12:35 AM 48.2 °F 44.6 °F 87% 29.97 in 10.0 mi ESE 11.5 mph 17.3 mph N/A   Overcast
12:55 AM 48.2 °F 44.6 °F 87% 29.97 in 10.0 mi ESE 10.4 mph - N/A   Overcast
1:15 AM 48.2 °F 44.6 °F 87% 29.97 in 10.0 mi SE 9.2 mph - N/A   Overcast
1:35 AM 48.2 °F 44.6 °F 87% 29.97 in 10.0 mi SE 9.2 mph - N/A   Mostly Cloudy
1:55 AM 48.2 °F 44.6 °F 87% 29.97 in 10.0 mi SE 10.4 mph - N/A   Mostly Cloudy
2:15 AM 48.2 °F 44.6 °F 87% 29.96 in 10.0 mi SE 11.5 mph - N/A   Overcast
2:35 AM 48.2 °F 44.6 °F 87% 29.96 in 10.0 mi SE 11.5 mph - N/A   Overcast
2:55 AM 48.2 °F 44.6 °F 87% 29.95 in 10.0 mi SE 10.4 mph 17.3 mph N/A   Overcast
3:15 AM 48.2 °F 44.6 °F 87% 29.95 in 10.0 mi SE 9.2 mph - N/A   Overcast
3:35 AM 50.0 °F 44.6 °F 82% 29.95 in 10.0 mi SE 10.4 mph - N/A   Overcast
3:55 AM 50.0 °F 44.6 °F 82% 29.95 in 10.0 mi SE 9.2 mph - N/A   Overcast
4:15 AM 48.2 °F 44.6 °F 87% 29.96 in 10.0 mi SE 8.1 mph - 0.01 in   Overcast
4:35 AM 48.2 °F 44.6 °F 87% 29.96 in 6.0 mi SSE 8.1 mph - 0.03 in   Overcast
4:55 AM 48.2 °F 46.4 °F 93% 29.96 in 8.0 mi SE 6.9 mph - 0.05 in   Overcast
5:15 AM 48.2 °F 46.4 °F 93% 29.96 in 9.0 mi SE 9.2 mph - N/A   Overcast
5:35 AM 48.2 °F 46.4 °F 93% 29.96 in 10.0 mi SE 11.5 mph - N/A   Overcast
5:55 AM 48.2 °F 46.4 °F 93% 29.97 in 10.0 mi SE 9.2 mph - N/A   Overcast
6:15 AM 48.2 °F 46.4 °F 93% 29.97 in 10.0 mi ESE 8.1 mph - N/A   Overcast
6:35 AM 48.2 °F 46.4 °F 93% 29.97 in 10.0 mi ESE 9.2 mph - N/A   Overcast
6:55 AM 48.2 °F 46.4 °F 93% 29.98 in 8.0 mi SE 6.9 mph - N/A   Overcast
7:15 AM 48.2 °F 46.4 °F 93% 29.98 in 9.0 mi SE 8.1 mph - N/A   Overcast
7:35 AM 48.2 °F 46.4 °F 93% 29.99 in 8.0 mi SE 6.9 mph - N/A   Overcast
7:55 AM 50.0 °F 46.4 °F 87% 29.99 in 10.0 mi SE 8.1 mph - N/A   Overcast
8:15 AM 50.0 °F 46.4 °F 87% 29.99 in 10.0 mi SE 9.2 mph - N/A   Overcast
8:35 AM 50.0 °F 46.4 °F 87% 29.99 in 9.0 mi SE 6.9 mph - N/A   Overcast
8:55 AM 51.8 °F 46.4 °F 82% 30.00 in 10.0 mi SE 8.1 mph - N/A   Overcast
9:15 AM 51.8 °F 48.2 °F 88% 30.00 in 10.0 mi SE 8.1 mph - N/A   Overcast
9:35 AM 51.8 °F 48.2 °F 88% 30.00 in 10.0 mi SE 8.1 mph - N/A   Overcast
9:55 AM 51.8 °F 48.2 °F 88% 30.00 in 10.0 mi SE 9.2 mph - N/A   Overcast
10:15 AM 51.8 °F 48.2 °F 88% 30.00 in 10.0 mi SE 10.4 mph - N/A   Overcast
10:35 AM 51.8 °F 48.2 °F 88% 30.00 in 10.0 mi SSE 10.4 mph - N/A   Overcast
10:55 AM 53.6 °F 48.2 °F 82% 30.01 in 10.0 mi SSE 9.2 mph - N/A   Overcast
11:15 AM 53.6 °F 48.2 °F 82% 30.00 in 10.0 mi SE 10.4 mph - N/A   Overcast
11:35 AM 55.4 °F 50.0 °F 82% 30.01 in 10.0 mi SSE 9.2 mph - N/A   Overcast
11:55 AM 55.4 °F 51.8 °F 88% 30.00 in 10.0 mi SSE 9.2 mph - N/A   Overcast
12:15 PM 57.2 °F 51.8 °F 82% 30.01 in 10.0 mi SE 11.5 mph 16.1 mph N/A   Overcast
12:35 PM 57.2 °F 51.8 °F 82% 30.00 in 10.0 mi SSE 10.4 mph - N/A   Overcast
12:55 PM 57.2 °F 51.8 °F 82% 30.00 in 10.0 mi South 9.2 mph - N/A   Overcast
1:15 PM 57.2 °F 51.8 °F 82% 30.00 in 10.0 mi South 10.4 mph - N/A   Overcast
1:35 PM 57.2 °F 51.8 °F 82% 30.00 in 10.0 mi SSE 10.4 mph - N/A   Overcast
1:55 PM 57.2 °F 51.8 °F 82% 30.00 in 10.0 mi SSE 8.1 mph - N/A   Overcast
2:15 PM 55.4 °F 51.8 °F 88% 30.01 in 6.0 mi South 6.9 mph - N/A   Overcast
2:35 PM 55.4 °F 51.8 °F 88% 30.01 in 2.5 mi South 4.6 mph - 0.02 in   Overcast
2:55 PM 55.4 °F 53.6 °F 94% 30.01 in 2.0 mi SSE 4.6 mph - 0.03 in   Overcast
3:15 PM 55.4 °F 53.6 °F 94% 30.00 in 6.0 mi SSE 6.9 mph - 0.01 in   Overcast
3:35 PM 55.4 °F 53.6 °F 94% 30.00 in 5.0 mi SE 6.9 mph - 0.02 in   Overcast
3:55 PM 55.4 °F 53.6 °F 94% 30.00 in 8.0 mi SSE 9.2 mph - 0.02 in   Mostly Cloudy
4:15 PM 55.4 °F 53.6 °F 94% 29.99 in 10.0 mi South 6.9 mph - N/A   Overcast
4:35 PM 55.4 °F 53.6 °F 94% 29.99 in 10.0 mi SSE 5.8 mph - N/A   Overcast
4:55 PM 57.2 °F 53.6 °F 88% 29.99 in 5.0 mi SSE 6.9 mph - N/A   Overcast
5:15 PM 55.4 °F 53.6 °F 94% 29.99 in 8.0 mi SE 6.9 mph - N/A   Overcast
5:35 PM 57.2 °F 53.6 °F 88% 29.99 in 10.0 mi ESE 6.9 mph - N/A   Overcast
5:55 PM 57.2 °F 53.6 °F 88% 30.00 in 7.0 mi ESE 5.8 mph - N/A   Overcast
6:15 PM 57.2 °F 53.6 °F 88% 30.00 in 4.0 mi ESE 4.6 mph - N/A   Overcast
6:35 PM 57.2 °F 53.6 °F 88% 30.00 in 5.0 mi ESE 6.9 mph - N/A   Overcast
6:55 PM 57.2 °F 53.6 °F 88% 30.00 in 10.0 mi ESE 9.2 mph - N/A   Mostly Cloudy
7:15 PM 55.4 °F 53.6 °F 94% 30.00 in 10.0 mi ESE 8.1 mph - N/A   Overcast
7:35 PM 55.4 °F 53.6 °F 94% 30.01 in 10.0 mi SE 4.6 mph - N/A   Overcast
7:55 PM 55.4 °F 53.6 °F 94% 30.01 in 10.0 mi SE 5.8 mph - N/A   Overcast
8:15 PM 55.4 °F 53.6 °F 94% 30.01 in 10.0 mi SE 4.6 mph - N/A   Overcast
8:35 PM 55.4 °F 53.6 °F 94% 30.02 in 10.0 mi SE 5.8 mph - N/A   Overcast
8:55 PM 55.4 °F 51.8 °F 88% 30.03 in 10.0 mi SE 8.1 mph - N/A   Overcast
9:15 PM 55.4 °F 51.8 °F 88% 30.03 in 10.0 mi SE 8.1 mph - N/A   Overcast
9:35 PM 55.4 °F 51.8 °F 88% 30.04 in 10.0 mi SE 8.1 mph - N/A   Overcast
9:55 PM 55.4 °F 51.8 °F 88% 30.04 in 10.0 mi SE 9.2 mph - N/A   Overcast
10:15 PM 55.4 °F 51.8 °F 88% 30.05 in 10.0 mi SE 9.2 mph - N/A   Overcast
10:35 PM 55.4 °F 51.8 °F 88% 30.05 in 10.0 mi SE 8.1 mph - N/A   Overcast
10:55 PM 53.6 °F 51.8 °F 94% 30.04 in 10.0 mi ESE 9.2 mph - N/A   Overcast
11:35 PM 53.6 °F 51.8 °F 94% 30.04 in 10.0 mi SE 8.1 mph - N/A   Mostly Cloudy
11:55 PM 53.6 °F 51.8 °F 94% 30.05 in 10.0 mi SE 9.2 mph - N/A   Overcast